PDT,Max TemperatureF,Mean TemperatureF,Min TemperatureF,Max Dew PointF,MeanDew PointF,Min DewpointF,Max Humidity, Mean Humidity, Min Humidity, Max Sea Level PressureIn, Mean Sea Level PressureIn, Min Sea Level PressureIn, Max VisibilityMiles, Mean VisibilityMiles, Min VisibilityMiles, Max Wind SpeedMPH, Mean Wind SpeedMPH, Max Gust SpeedMPH,PrecipitationIn, CloudCover, Events, WindDirDegrees
2012-10-1,97,78,58,54,49,40,72,45,18,30.00,29.91,29.84,10,10,7,12,3,,0.00,0,,339
2012-10-2,99,79,58,58,51,45,80,48,16,29.88,29.82,29.75,10,10,7,9,1,12,0.00,0,,7
2012-10-3,97,79,60,57,50,40,84,49,14,29.91,29.83,29.79,10,9,6,15,4,24,0.00,0,,2
2012-10-4,85,72,58,54,52,46,86,59,32,30.08,30.01,29.92,10,10,7,13,6,17,0.00,0,,338
2012-10-5,78,68,57,54,52,48,80,61,42,30.14,30.08,30.03,10,10,10,15,7,18,0.00,0,,329
2012-10-6,79,68,57,52,50,48,80,58,36,30.06,30.00,29.93,10,10,10,15,7,20,0.00,0,,337
2012-10-7,80,67,54,52,49,46,83,61,39,29.99,29.95,29.88,10,10,10,13,7,25,0.00,0,,332
2012-10-8,77,67,56,50,47,45,77,55,33,30.03,29.99,29.96,10,10,10,13,9,25,0.00,0,,333
2012-10-9,77,64,50,50,47,44,89,61,33,30.02,29.97,29.90,10,10,8,18,4,82,0.00,0,,321
2012-10-10,78,66,54,50,49,46,77,55,33,29.94,29.90,29.85,10,10,10,10,4,15,0.00,0,,344
2012-10-11,65,59,53,52,50,49,89,75,60,29.96,29.90,29.85,10,9,6,10,6,15,0.01,3,,347
2012-10-12,67,62,56,52,50,48,86,69,52,30.21,30.09,29.96,10,10,7,8,3,12,0.01,6,Rain,351
2012-10-13,74,63,51,51,49,47,89,65,41,30.30,30.23,30.16,10,10,6,14,5,17,0.00,0,,316
2012-10-14,81,66,50,56,52,48,89,64,39,30.21,30.13,30.04,10,9,4,10,3,24,0.00,0,,321
2012-10-15,84,70,56,56,54,53,86,62,37,30.07,30.00,29.92,10,10,10,15,3,22,0.00,0,,319
2012-10-16,88,73,57,61,57,53,86,63,40,29.97,29.90,29.81,10,10,10,17,6,41,0.00,0,,322
2012-10-17,83,72,60,57,41,34,68,45,22,29.92,29.87,29.82,10,10,9,15,8,21,0.00,0,,315
2012-10-18,90,72,53,56,52,50,93,61,29,30.00,29.94,29.89,10,9,8,9,3,12,0.00,0,,342
2012-10-19,82,72,62,61,59,54,93,71,49,30.04,29.97,29.88,10,8,2,14,7,18,0.00,4,,325
2012-10-20,79,68,56,55,50,40,86,63,39,29.88,29.82,29.75,10,10,9,14,4,20,0.00,0,,328
2012-10-21,72,59,46,43,38,30,77,50,23,29.90,29.85,29.81,10,10,10,17,4,23,0.00,2,,325
2012-10-22,63,58,53,50,47,42,83,69,55,29.96,29.87,29.80,10,9,3,20,7,31,0.03,6,Rain,133
2012-10-23,65,58,50,50,44,38,89,63,37,30.06,30.01,29.97,10,10,4,9,5,14,0.07,4,Rain,60
2012-10-24,68,57,45,45,43,42,86,64,42,30.20,30.12,30.04,10,10,10,12,3,21,T,4,,65
2012-10-25,69,63,56,49,46,42,77,61,44,30.25,30.21,30.17,10,10,9,20,8,25,0.00,4,,317
2012-10-26,72,61,49,43,38,33,66,46,25,30.23,30.16,30.09,10,10,7,14,7,17,0.00,0,,317
2012-10-27,77,61,45,50,45,42,86,59,31,30.08,30.02,29.95,10,10,9,10,3,14,0.00,0,,72
2012-10-28,80,65,49,54,49,45,89,62,35,30.01,29.98,29.94,10,9,7,6,3,23,0.00,0,,125
2012-10-29,82,66,50,55,51,47,93,65,36,30.11,30.05,30.01,10,8,5,12,1,26,0.00,0,,340
2012-10-30,81,65,49,55,52,48,93,65,36,30.07,30.00,29.94,10,8,4,15,1,33,0.00,0,,322
2012-10-31,69,61,53,54,53,51,93,76,58,30.02,29.98,29.95,10,8,2,12,6,15,0.00,2,,341